Location: Unspecified
(0.0000°N, 0.0000°E)
Time: 09:52:37
(UTC+00:00)

Courier 1B Rocket - Pass Details

Date: 20 December 2018
Orbit: 920 x 1202 km, 28.3° (Epoch: 17 January)

Event Time Altitude Azimuth Distance (km) Brightness Sun altitude
Rises 02:57:38 0° 237° (WSW) 3,707 - -40.4°
Reaches altitude 10° 03:00:22 10° 235° (SW) 2,719 - -39.8°
Maximum altitude 03:06:53 76° 150° (SSE) 967 - -38.4°
Exits shadow 03:10:44 25° 68° (ENE) 1,778 6.6 -37.6°
Drops below altitude 10° 03:13:07 10° 65° (ENE) 2,605 7.6 -37.1°
Sets 03:15:42 0° 63° (ENE) 3,542 8.3 -36.5°
